owner,sensor,date,latitude,longitude,vertical_datum,mass_concentration_of_oxygen_in_sea_water,qcFlag 
SCCF RECON,ioos:station:SCCF:18:1,2013-02-01T00:00:00Z,26.6955,-81.8138,1.652,7.16,1111122 
SCCF RECON,ioos:station:SCCF:18:1,2013-02-01T01:00:00Z,26.6955,-81.8138,1.62,7.55,1111122 
SCCF RECON,ioos:station:SCCF:18:1,2013-02-01T02:00:00Z,26.6955,-81.8138,1.56,7.6,1111122 
SCCF RECON,ioos:station:SCCF:18:1,2013-02-01T03:00:00Z,26.6955,-81.8138,1.51,7.46,1111122 
SCCF RECON,ioos:station:SCCF:18:1,2013-02-01T04:00:00Z,26.6955,-81.8138,1.47,7.43,1111122 
SCCF RECON,ioos:station:SCCF:18:1,2013-02-01T05:00:00Z,26.6955,-81.8138,1.43,7.3,1111122 
SCCF RECON,ioos:station:SCCF:18:1,2013-02-01T06:00:00Z,26.6955,-81.8138,1.39,7.13,1111122 
SCCF RECON,ioos:station:SCCF:18:1,2013-02-01T07:00:00Z,26.6955,-81.8138,1.36,7.07,1111122 
SCCF RECON,ioos:station:SCCF:18:1,2013-02-01T08:00:00Z,26.6955,-81.8138,1.36,6.95,1111122 
SCCF RECON,ioos:station:SCCF:18:1,2013-02-01T09:00:00Z,26.6955,-81.8138,1.41,6.74,1111122 
SCCF RECON,ioos:station:SCCF:18:1,2013-02-01T10:00:00Z,26.6955,-81.8138,1.45,6.45,1111122 
SCCF RECON,ioos:station:SCCF:18:1,2013-02-01T11:00:00Z,26.6955,-81.8138,1.48,6.5,1111122 
SCCF RECON,ioos:station:SCCF:18:1,2013-02-01T12:00:00Z,26.6955,-81.8138,1.49,6.45,1111122 
SCCF RECON,ioos:station:SCCF:18:1,2013-02-01T13:00:00Z,26.6955,-81.8138,1.462,6.56,1111122 
SCCF RECON,ioos:station:SCCF:18:1,2013-02-01T14:00:00Z,26.6955,-81.8138,1.41,6.9,1111122 
SCCF RECON,ioos:station:SCCF:18:1,2013-02-01T15:00:00Z,26.6955,-81.8138,1.36,7.01,1111122 
SCCF RECON,ioos:station:SCCF:18:1,2013-02-01T16:00:00Z,26.6955,-81.8138,1.328,7.2,1111122 
SCCF RECON,ioos:station:SCCF:18:1,2013-02-01T17:00:00Z,26.6955,-81.8138,1.3,7.3,1111122 
SCCF RECON,ioos:station:SCCF:18:1,2013-02-01T18:00:00Z,26.6955,-81.8138,1.26,7.73,1111122 
SCCF RECON,ioos:station:SCCF:18:1,2013-02-01T19:00:00Z,26.6955,-81.8138,1.23,8.0,1111122 
SCCF RECON,ioos:station:SCCF:18:1,2013-02-01T20:00:00Z,26.6955,-81.8138,1.24,7.9,1111122 
SCCF RECON,ioos:station:SCCF:18:1,2013-02-01T21:00:00Z,26.6955,-81.8138,1.306,7.94,1111122 
SCCF RECON,ioos:station:SCCF:18:1,2013-02-01T22:00:00Z,26.6955,-81.8138,1.38,8.32,1111122 
SCCF RECON,ioos:station:SCCF:18:1,2013-02-01T23:00:00Z,26.6955,-81.8138,1.438,8.38,1111122 
SCCF RECON,ioos:station:SCCF:18:1,2013-02-02T00:00:00Z,26.6955,-81.8138,1.49,8.52,1111122 
SCCF RECON,ioos:station:SCCF:18:1,2013-02-02T01:00:00Z,26.6955,-81.8138,1.54,8.28,1111122 
SCCF RECON,ioos:station:SCCF:18:1,2013-02-02T02:00:00Z,26.6955,-81.8138,1.54,8.33,1111122 
SCCF RECON,ioos:station:SCCF:18:1,2013-02-02T03:00:00Z,26.6955,-81.8138,1.49,8.53,1111122 
SCCF RECON,ioos:station:SCCF:18:1,2013-02-02T04:00:00Z,26.6955,-81.8138,1.44,7.95,1111122 
SCCF RECON,ioos:station:SCCF:18:1,2013-02-02T05:00:00Z,26.6955,-81.8138,1.4,7.85,1111122 
SCCF RECON,ioos:station:SCCF:18:1,2013-02-02T06:00:00Z,26.6955,-81.8138,1.37,7.83,1111122 
SCCF RECON,ioos:station:SCCF:18:1,2013-02-02T07:00:00Z,26.6955,-81.8138,1.34,7.73,1111122 
SCCF RECON,ioos:station:SCCF:18:1,2013-02-02T08:00:00Z,26.6955,-81.8138,1.31,7.64,1111122 
SCCF RECON,ioos:station:SCCF:18:1,2013-02-02T09:00:00Z,26.6955,-81.8138,1.34,7.47,1111122 
SCCF RECON,ioos:station:SCCF:18:1,2013-02-02T10:00:00Z,26.6955,-81.8138,1.38,7.36,1111122 
SCCF RECON,ioos:station:SCCF:18:1,2013-02-02T11:00:00Z,26.6955,-81.8138,1.43,7.18,1111122 
SCCF RECON,ioos:station:SCCF:18:1,2013-02-02T12:00:00Z,26.6955,-81.8138,1.46,6.97,1111122 
SCCF RECON,ioos:station:SCCF:18:1,2013-02-02T13:00:00Z,26.6955,-81.8138,1.48,7.16,1111122 
SCCF RECON,ioos:station:SCCF:18:1,2013-02-02T14:00:00Z,26.6955,-81.8138,1.471,7.54,1111122 
SCCF RECON,ioos:station:SCCF:18:1,2013-02-02T15:00:00Z,26.6955,-81.8138,1.45,7.67,1111122 
SCCF RECON,ioos:station:SCCF:18:1,2013-02-02T16:00:00Z,26.6955,-81.8138,1.401,7.6,1111122 
SCCF RECON,ioos:station:SCCF:18:1,2013-02-02T17:00:00Z,26.6955,-81.8138,1.36,7.85,1111122 
SCCF RECON,ioos:station:SCCF:18:1,2013-02-02T18:00:00Z,26.6955,-81.8138,1.34,8.53,1111122 
SCCF RECON,ioos:station:SCCF:18:1,2013-02-02T19:00:00Z,26.6955,-81.8138,1.35,8.84,1111122 
SCCF RECON,ioos:station:SCCF:18:1,2013-02-02T20:00:00Z,26.6955,-81.8138,1.42,8.75,1111122 
SCCF RECON,ioos:station:SCCF:18:1,2013-02-02T21:00:00Z,26.6955,-81.8138,1.5,8.7,1111122 
SCCF RECON,ioos:station:SCCF:18:1,2013-02-02T22:00:00Z,26.6955,-81.8138,1.56,8.98,1111122 
SCCF RECON,ioos:station:SCCF:18:1,2013-02-02T23:00:00Z,26.6955,-81.8138,1.62,9.54,1111122 
SCCF RECON,ioos:station:SCCF:18:1,2013-02-03T00:00:00Z,26.6955,-81.8138,1.69,9.19,1111122 
SCCF RECON,ioos:station:SCCF:18:1,2013-02-03T01:00:00Z,26.6955,-81.8138,1.76,9.24,1111122 
SCCF RECON,ioos:station:SCCF:18:1,2013-02-03T02:00:00Z,26.6955,-81.8138,1.79,9.16,1111122 
SCCF RECON,ioos:station:SCCF:18:1,2013-02-03T03:00:00Z,26.6955,-81.8138,1.76,9.28,1111122 
SCCF RECON,ioos:station:SCCF:18:1,2013-02-03T04:00:00Z,26.6955,-81.8138,1.69,9.19,1111122 
SCCF RECON,ioos:station:SCCF:18:1,2013-02-03T05:00:00Z,26.6955,-81.8138,1.62,8.57,1111122 
SCCF RECON,ioos:station:SCCF:18:1,2013-02-03T06:00:00Z,26.6955,-81.8138,1.57,8.5,1111122 
SCCF RECON,ioos:station:SCCF:18:1,2013-02-03T07:00:00Z,26.6955,-81.8138,1.53,7.88,1111122 
SCCF RECON,ioos:station:SCCF:18:1,2013-02-03T08:00:00Z,26.6955,-81.8138,1.48,7.49,1111122 
SCCF RECON,ioos:station:SCCF:18:1,2013-02-03T09:00:00Z,26.6955,-81.8138,1.45,7.38,1111122 
SCCF RECON,ioos:station:SCCF:18:1,2013-02-03T10:00:00Z,26.6955,-81.8138,1.44,7.02,1111122 
SCCF RECON,ioos:station:SCCF:18:1,2013-02-03T11:00:00Z,26.6955,-81.8138,1.49,6.99,1111122 
SCCF RECON,ioos:station:SCCF:18:1,2013-02-03T12:00:00Z,26.6955,-81.8138,1.53,6.89,1111122 
SCCF RECON,ioos:station:SCCF:18:1,2013-02-03T13:00:00Z,26.6955,-81.8138,1.58,6.93,1111122 
SCCF RECON,ioos:station:SCCF:18:1,2013-02-03T14:00:00Z,26.6955,-81.8138,1.59,6.94,1111122 
SCCF RECON,ioos:station:SCCF:18:1,2013-02-03T15:00:00Z,26.6955,-81.8138,1.597,7.02,1111122 
SCCF RECON,ioos:station:SCCF:18:1,2013-02-03T16:00:00Z,26.6955,-81.8138,1.57,7.2,1111122 
SCCF RECON,ioos:station:SCCF:18:1,2013-02-03T17:00:00Z,26.6955,-81.8138,1.51,7.27,1111122 
SCCF RECON,ioos:station:SCCF:18:1,2013-02-03T18:00:00Z,26.6955,-81.8138,1.468,7.07,1111122 
SCCF RECON,ioos:station:SCCF:18:1,2013-02-03T19:00:00Z,26.6955,-81.8138,1.43,7.42,1111122 
SCCF RECON,ioos:station:SCCF:18:1,2013-02-03T20:00:00Z,26.6955,-81.8138,1.418,7.39,1111122 
SCCF RECON,ioos:station:SCCF:18:1,2013-02-03T21:00:00Z,26.6955,-81.8138,1.413,7.41,1111122 
SCCF RECON,ioos:station:SCCF:18:1,2013-02-03T22:00:00Z,26.6955,-81.8138,1.49,7.95,1111122 
SCCF RECON,ioos:station:SCCF:18:1,2013-02-03T23:00:00Z,26.6955,-81.8138,1.6,8.08,1111122 
SCCF RECON,ioos:station:SCCF:18:1,2013-02-04T00:00:00Z,26.6955,-81.8138,1.676,8.09,1111122 
SCCF RECON,ioos:station:SCCF:18:1,2013-02-04T01:00:00Z,26.6955,-81.8138,1.72,7.88,1111122 
SCCF RECON,ioos:station:SCCF:18:1,2013-02-04T02:00:00Z,26.6955,-81.8138,1.75,7.87,1111122 
SCCF RECON,ioos:station:SCCF:18:1,2013-02-04T03:00:00Z,26.6955,-81.8138,1.75,8.06,1111122 
SCCF RECON,ioos:station:SCCF:18:1,2013-02-04T04:00:00Z,26.6955,-81.8138,1.71,7.95,1111122 
SCCF RECON,ioos:station:SCCF:18:1,2013-02-04T05:00:00Z,26.6955,-81.8138,1.64,7.66,1111122 
SCCF RECON,ioos:station:SCCF:18:1,2013-02-04T06:00:00Z,26.6955,-81.8138,1.58,7.41,1111122 
SCCF RECON,ioos:station:SCCF:18:1,2013-02-04T07:00:00Z,26.6955,-81.8138,1.53,7.37,1111122 
SCCF RECON,ioos:station:SCCF:18:1,2013-02-04T08:00:00Z,26.6955,-81.8138,1.49,7.23,1111122 
SCCF RECON,ioos:station:SCCF:18:1,2013-02-04T09:00:00Z,26.6955,-81.8138,1.43,7.17,1111122 
SCCF RECON,ioos:station:SCCF:18:1,2013-02-04T10:00:00Z,26.6955,-81.8138,1.39,7.08,1111122 
SCCF RECON,ioos:station:SCCF:18:1,2013-02-04T11:00:00Z,26.6955,-81.8138,1.38,7.01,1111122 
SCCF RECON,ioos:station:SCCF:18:1,2013-02-04T12:00:00Z,26.6955,-81.8138,1.422,6.83,1111122 
SCCF RECON,ioos:station:SCCF:18:1,2013-02-04T13:00:00Z,26.6955,-81.8138,1.48,6.64,1111122 
SCCF RECON,ioos:station:SCCF:18:1,2013-02-04T14:00:00Z,26.6955,-81.8138,1.53,6.8,1111122 
SCCF RECON,ioos:station:SCCF:18:1,2013-02-04T15:00:00Z,26.6955,-81.8138,1.56,7.16,1111122 
SCCF RECON,ioos:station:SCCF:18:1,2013-02-04T16:00:00Z,26.6955,-81.8138,1.57,7.31,1111122 
SCCF RECON,ioos:station:SCCF:18:1,2013-02-04T17:00:00Z,26.6955,-81.8138,1.58,7.14,1111122 
SCCF RECON,ioos:station:SCCF:18:1,2013-02-04T18:00:00Z,26.6955,-81.8138,1.58,7.64,1111122 
SCCF RECON,ioos:station:SCCF:18:1,2013-02-04T19:00:00Z,26.6955,-81.8138,1.55,8.01,1111122 
SCCF RECON,ioos:station:SCCF:18:1,2013-02-04T20:00:00Z,26.6955,-81.8138,1.53,7.72,1111122 
SCCF RECON,ioos:station:SCCF:18:1,2013-02-04T21:00:00Z,26.6955,-81.8138,1.54,7.89,1111122 
SCCF RECON,ioos:station:SCCF:18:1,2013-02-04T22:00:00Z,26.6955,-81.8138,1.6,8.26,1111122 
SCCF RECON,ioos:station:SCCF:18:1,2013-02-04T23:00:00Z,26.6955,-81.8138,1.67,8.56,1111122 
SCCF RECON,ioos:station:SCCF:18:1,2013-02-05T00:00:00Z,26.6955,-81.8138,1.74,8.79,1111122 
SCCF RECON,ioos:station:SCCF:18:1,2013-02-05T01:00:00Z,26.6955,-81.8138,1.78,8.13,1111122 
SCCF RECON,ioos:station:SCCF:18:1,2013-02-05T02:00:00Z,26.6955,-81.8138,1.82,7.98,1111122 
SCCF RECON,ioos:station:SCCF:18:1,2013-02-05T03:00:00Z,26.6955,-81.8138,1.86,8.27,1111122 
SCCF RECON,ioos:station:SCCF:18:1,2013-02-05T04:00:00Z,26.6955,-81.8138,1.86,7.97,1111122 
SCCF RECON,ioos:station:SCCF:18:1,2013-02-05T05:00:00Z,26.6955,-81.8138,1.78,7.29,1111122 
SCCF RECON,ioos:station:SCCF:18:1,2013-02-05T06:00:00Z,26.6955,-81.8138,1.7,7.27,1111122 
SCCF RECON,ioos:station:SCCF:18:1,2013-02-05T07:00:00Z,26.6955,-81.8138,1.636,7.32,1111122 
SCCF RECON,ioos:station:SCCF:18:1,2013-02-05T08:00:00Z,26.6955,-81.8138,1.596,6.96,1111122 
SCCF RECON,ioos:station:SCCF:18:1,2013-02-05T09:00:00Z,26.6955,-81.8138,1.54,6.86,1111122 
SCCF RECON,ioos:station:SCCF:18:1,2013-02-05T10:00:00Z,26.6955,-81.8138,1.48,6.94,1111122 
SCCF RECON,ioos:station:SCCF:18:1,2013-02-05T11:00:00Z,26.6955,-81.8138,1.43,6.92,1111122 
SCCF RECON,ioos:station:SCCF:18:1,2013-02-05T12:00:00Z,26.6955,-81.8138,1.4,6.8,1111122 
SCCF RECON,ioos:station:SCCF:18:1,2013-02-05T13:00:00Z,26.6955,-81.8138,1.4,6.78,1111122 
SCCF RECON,ioos:station:SCCF:18:1,2013-02-05T14:00:00Z,26.6955,-81.8138,1.43,6.68,1111122 
SCCF RECON,ioos:station:SCCF:18:1,2013-02-05T15:00:00Z,26.6955,-81.8138,1.5,6.83,1111122 
SCCF RECON,ioos:station:SCCF:18:1,2013-02-05T16:00:00Z,26.6955,-81.8138,1.56,6.72,1111122 
SCCF RECON,ioos:station:SCCF:18:1,2013-02-05T17:00:00Z,26.6955,-81.8138,1.61,7.2,1111122 
SCCF RECON,ioos:station:SCCF:18:1,2013-02-05T18:00:00Z,26.6955,-81.8138,1.64,7.55,1111122 
SCCF RECON,ioos:station:SCCF:18:1,2013-02-05T19:00:00Z,26.6955,-81.8138,1.66,8.01,1111122 
SCCF RECON,ioos:station:SCCF:18:1,2013-02-05T20:00:00Z,26.6955,-81.8138,1.67,7.18,1111122 
SCCF RECON,ioos:station:SCCF:18:1,2013-02-05T21:00:00Z,26.6955,-81.8138,1.669,7.33,1111122 
SCCF RECON,ioos:station:SCCF:18:1,2013-02-05T22:00:00Z,26.6955,-81.8138,1.693,7.23,1111122 
SCCF RECON,ioos:station:SCCF:18:1,2013-02-05T23:00:00Z,26.6955,-81.8138,1.74,8.44,1111122 
SCCF RECON,ioos:station:SCCF:18:1,2013-02-06T00:00:00Z,26.6955,-81.8138,1.8,8.87,1111122 
SCCF RECON,ioos:station:SCCF:18:1,2013-02-06T01:00:00Z,26.6955,-81.8138,1.84,8.34,1111122 
SCCF RECON,ioos:station:SCCF:18:1,2013-02-06T02:00:00Z,26.6955,-81.8138,1.89,8.21,1111122 
SCCF RECON,ioos:station:SCCF:18:1,2013-02-06T03:00:00Z,26.6955,-81.8138,1.93,8.39,1111122 
SCCF RECON,ioos:station:SCCF:18:1,2013-02-06T04:00:00Z,26.6955,-81.8138,1.96,8.1,1111122 
SCCF RECON,ioos:station:SCCF:18:1,2013-02-06T05:00:00Z,26.6955,-81.8138,1.94,8.07,1111122 
SCCF RECON,ioos:station:SCCF:18:1,2013-02-06T06:00:00Z,26.6955,-81.8138,1.86,7.8,1111122 
SCCF RECON,ioos:station:SCCF:18:1,2013-02-06T07:00:00Z,26.6955,-81.8138,1.79,7.6,1111122 
SCCF RECON,ioos:station:SCCF:18:1,2013-02-06T08:00:00Z,26.6955,-81.8138,1.73,7.25,1111122 
SCCF RECON,ioos:station:SCCF:18:1,2013-02-06T09:00:00Z,26.6955,-81.8138,1.68,7.25,1111122 
SCCF RECON,ioos:station:SCCF:18:1,2013-02-06T10:00:00Z,26.6955,-81.8138,1.616,7.02,1111122 
SCCF RECON,ioos:station:SCCF:18:1,2013-02-06T11:00:00Z,26.6955,-81.8138,1.55,6.98,1111122 
SCCF RECON,ioos:station:SCCF:18:1,2013-02-06T12:00:00Z,26.6955,-81.8138,1.51,6.87,1111122 
SCCF RECON,ioos:station:SCCF:18:1,2013-02-06T13:00:00Z,26.6955,-81.8138,1.47,6.82,1111122 
SCCF RECON,ioos:station:SCCF:18:1,2013-02-06T14:00:00Z,26.6955,-81.8138,1.46,6.7,1111122 
SCCF RECON,ioos:station:SCCF:18:1,2013-02-06T15:00:00Z,26.6955,-81.8138,1.48,6.72,1111122 
SCCF RECON,ioos:station:SCCF:18:1,2013-02-06T16:00:00Z,26.6955,-81.8138,1.55,6.85,1111122 
SCCF RECON,ioos:station:SCCF:18:1,2013-02-06T17:00:00Z,26.6955,-81.8138,1.62,7.05,1111122 
SCCF RECON,ioos:station:SCCF:18:1,2013-02-06T18:00:00Z,26.6955,-81.8138,1.669,7.32,1111122 
SCCF RECON,ioos:station:SCCF:18:1,2013-02-06T19:00:00Z,26.6955,-81.8138,1.69,7.19,1111122 
SCCF RECON,ioos:station:SCCF:18:1,2013-02-06T20:00:00Z,26.6955,-81.8138,1.707,7.29,1111122 
SCCF RECON,ioos:station:SCCF:18:1,2013-02-06T21:00:00Z,26.6955,-81.8138,1.7,7.28,1111122 
SCCF RECON,ioos:station:SCCF:18:1,2013-02-06T22:00:00Z,26.6955,-81.8138,1.69,7.0,1111122 
SCCF RECON,ioos:station:SCCF:18:1,2013-02-06T23:00:00Z,26.6955,-81.8138,1.66,7.65,1111122 
SCCF RECON,ioos:station:SCCF:18:1,2013-02-07T00:00:00Z,26.6955,-81.8138,1.66,6.88,1111122 
SCCF RECON,ioos:station:SCCF:18:1,2013-02-07T01:00:00Z,26.6955,-81.8138,1.73,7.74,1111122 
SCCF RECON,ioos:station:SCCF:18:1,2013-02-07T02:00:00Z,26.6955,-81.8138,1.81,7.66,1111122 
SCCF RECON,ioos:station:SCCF:18:1,2013-02-07T03:00:00Z,26.6955,-81.8138,1.87,7.48,1111122 
SCCF RECON,ioos:station:SCCF:18:1,2013-02-07T04:00:00Z,26.6955,-81.8138,1.908,7.38,1111122 
SCCF RECON,ioos:station:SCCF:18:1,2013-02-07T05:00:00Z,26.6955,-81.8138,1.94,7.39,1111122 
SCCF RECON,ioos:station:SCCF:18:1,2013-02-07T06:00:00Z,26.6955,-81.8138,1.96,7.4,1111122 
SCCF RECON,ioos:station:SCCF:18:1,2013-02-07T07:00:00Z,26.6955,-81.8138,1.9,7.43,1111122 
SCCF RECON,ioos:station:SCCF:18:1,2013-02-07T08:00:00Z,26.6955,-81.8138,1.8,6.9,1111122 
SCCF RECON,ioos:station:SCCF:18:1,2013-02-07T09:00:00Z,26.6955,-81.8138,1.72,6.67,1111122 
SCCF RECON,ioos:station:SCCF:18:1,2013-02-07T10:00:00Z,26.6955,-81.8138,1.67,6.68,1111122 
SCCF RECON,ioos:station:SCCF:18:1,2013-02-07T11:00:00Z,26.6955,-81.8138,1.614,6.56,1111122 
SCCF RECON,ioos:station:SCCF:18:1,2013-02-07T12:00:00Z,26.6955,-81.8138,1.56,6.41,1111122 
SCCF RECON,ioos:station:SCCF:18:1,2013-02-07T13:00:00Z,26.6955,-81.8138,1.5,6.56,1111122 
SCCF RECON,ioos:station:SCCF:18:1,2013-02-07T14:00:00Z,26.6955,-81.8138,1.46,6.56,1111122 
SCCF RECON,ioos:station:SCCF:18:1,2013-02-07T15:00:00Z,26.6955,-81.8138,1.45,6.71,1111122 
SCCF RECON,ioos:station:SCCF:18:1,2013-02-07T16:00:00Z,26.6955,-81.8138,1.48,6.91,1111122 
SCCF RECON,ioos:station:SCCF:18:1,2013-02-07T17:00:00Z,26.6955,-81.8138,1.56,7.1,1111122 
SCCF RECON,ioos:station:SCCF:18:1,2013-02-07T18:00:00Z,26.6955,-81.8138,1.625,6.98,1111122 
SCCF RECON,ioos:station:SCCF:18:1,2013-02-07T19:00:00Z,26.6955,-81.8138,1.68,7.26,1111122 
SCCF RECON,ioos:station:SCCF:18:1,2013-02-07T20:00:00Z,26.6955,-81.8138,1.733,7.82,1111122 
SCCF RECON,ioos:station:SCCF:18:1,2013-02-07T21:00:00Z,26.6955,-81.8138,1.768,7.26,1111122 
SCCF RECON,ioos:station:SCCF:18:1,2013-02-07T22:00:00Z,26.6955,-81.8138,1.75,7.82,1111122 
SCCF RECON,ioos:station:SCCF:18:1,2013-02-07T23:00:00Z,26.6955,-81.8138,1.698,8.01,1111122 
SCCF RECON,ioos:station:SCCF:18:1,2013-02-08T00:00:00Z,26.6955,-81.8138,1.65,7.42,1111122 
SCCF RECON,ioos:station:SCCF:18:1,2013-02-08T01:00:00Z,26.6955,-81.8138,1.64,6.28,1111122 
SCCF RECON,ioos:station:SCCF:18:1,2013-02-08T02:00:00Z,26.6955,-81.8138,1.715,7.04,1111122 
SCCF RECON,ioos:station:SCCF:18:1,2013-02-08T03:00:00Z,26.6955,-81.8138,1.801,6.96,1111122 
SCCF RECON,ioos:station:SCCF:18:1,2013-02-08T04:00:00Z,26.6955,-81.8138,1.88,7.14,1111122 
SCCF RECON,ioos:station:SCCF:18:1,2013-02-08T05:00:00Z,26.6955,-81.8138,1.927,7.44,1111122 
SCCF RECON,ioos:station:SCCF:18:1,2013-02-08T06:00:00Z,26.6955,-81.8138,1.98,7.38,1111122 
SCCF RECON,ioos:station:SCCF:18:1,2013-02-08T07:00:00Z,26.6955,-81.8138,1.991,7.02,1111122 
SCCF RECON,ioos:station:SCCF:18:1,2013-02-08T08:00:00Z,26.6955,-81.8138,1.94,7.19,1111122 
SCCF RECON,ioos:station:SCCF:18:1,2013-02-08T09:00:00Z,26.6955,-81.8138,1.858,6.93,1111122 
SCCF RECON,ioos:station:SCCF:18:1,2013-02-08T10:00:00Z,26.6955,-81.8138,1.78,6.9,1111122 
SCCF RECON,ioos:station:SCCF:18:1,2013-02-08T11:00:00Z,26.6955,-81.8138,1.73,6.44,1111122 
SCCF RECON,ioos:station:SCCF:18:1,2013-02-08T12:00:00Z,26.6955,-81.8138,1.69,6.34,1111122 
SCCF RECON,ioos:station:SCCF:18:1,2013-02-08T13:00:00Z,26.6955,-81.8138,1.63,6.41,1111122 
SCCF RECON,ioos:station:SCCF:18:1,2013-02-08T14:00:00Z,26.6955,-81.8138,1.57,6.34,1111122 
SCCF RECON,ioos:station:SCCF:18:1,2013-02-08T15:00:00Z,26.6955,-81.8138,1.53,6.23,1111122 
SCCF RECON,ioos:station:SCCF:18:1,2013-02-08T16:00:00Z,26.6955,-81.8138,1.53,6.66,1111122 
SCCF RECON,ioos:station:SCCF:18:1,2013-02-08T17:00:00Z,26.6955,-81.8138,1.57,6.51,1111122 
SCCF RECON,ioos:station:SCCF:18:1,2013-02-08T18:00:00Z,26.6955,-81.8138,1.65,6.38,1111122 
SCCF RECON,ioos:station:SCCF:18:1,2013-02-08T19:00:00Z,26.6955,-81.8138,1.71,6.53,1111122 
SCCF RECON,ioos:station:SCCF:18:1,2013-02-08T20:00:00Z,26.6955,-81.8138,1.74,6.47,1111122 
SCCF RECON,ioos:station:SCCF:18:1,2013-02-08T21:00:00Z,26.6955,-81.8138,1.748,6.48,1111122 
SCCF RECON,ioos:station:SCCF:18:1,2013-02-08T22:00:00Z,26.6955,-81.8138,1.71,7.03,1111122 
SCCF RECON,ioos:station:SCCF:18:1,2013-02-08T23:00:00Z,26.6955,-81.8138,1.65,7.24,1111122 
SCCF RECON,ioos:station:SCCF:18:1,2013-02-09T00:00:00Z,26.6955,-81.8138,1.6,7.07,1111122 
SCCF RECON,ioos:station:SCCF:18:1,2013-02-09T01:00:00Z,26.6955,-81.8138,1.57,7.28,1111122 
SCCF RECON,ioos:station:SCCF:18:1,2013-02-09T02:00:00Z,26.6955,-81.8138,1.56,7.13,1111122 
SCCF RECON,ioos:station:SCCF:18:1,2013-02-09T03:00:00Z,26.6955,-81.8138,1.618,7.04,1111122 
SCCF RECON,ioos:station:SCCF:18:1,2013-02-09T04:00:00Z,26.6955,-81.8138,1.7,6.45,1111122 
SCCF RECON,ioos:station:SCCF:18:1,2013-02-09T05:00:00Z,26.6955,-81.8138,1.77,6.37,1111122 
SCCF RECON,ioos:station:SCCF:18:1,2013-02-09T06:00:00Z,26.6955,-81.8138,1.81,6.32,1111122 
SCCF RECON,ioos:station:SCCF:18:1,2013-02-09T07:00:00Z,26.6955,-81.8138,1.84,6.21,1111122 
SCCF RECON,ioos:station:SCCF:18:1,2013-02-09T08:00:00Z,26.6955,-81.8138,1.81,6.6,1111122 
SCCF RECON,ioos:station:SCCF:18:1,2013-02-09T09:00:00Z,26.6955,-81.8138,1.74,6.61,1111122 
SCCF RECON,ioos:station:SCCF:18:1,2013-02-09T10:00:00Z,26.6955,-81.8138,1.67,6.57,1111122 
SCCF RECON,ioos:station:SCCF:18:1,2013-02-09T11:00:00Z,26.6955,-81.8138,1.62,6.68,1111122 
SCCF RECON,ioos:station:SCCF:18:1,2013-02-09T12:00:00Z,26.6955,-81.8138,1.58,6.68,1111122 
SCCF RECON,ioos:station:SCCF:18:1,2013-02-09T13:00:00Z,26.6955,-81.8138,1.521,6.51,1111122 
SCCF RECON,ioos:station:SCCF:18:1,2013-02-09T14:00:00Z,26.6955,-81.8138,1.47,6.52,1111122 
SCCF RECON,ioos:station:SCCF:18:1,2013-02-09T15:00:00Z,26.6955,-81.8138,1.41,6.57,1111122 
SCCF RECON,ioos:station:SCCF:18:1,2013-02-09T16:00:00Z,26.6955,-81.8138,1.353,6.67,1111122 
SCCF RECON,ioos:station:SCCF:18:1,2013-02-09T17:00:00Z,26.6955,-81.8138,1.34,6.78,1111122 
SCCF RECON,ioos:station:SCCF:18:1,2013-02-09T18:00:00Z,26.6955,-81.8138,1.373,6.88,1111122 
SCCF RECON,ioos:station:SCCF:18:1,2013-02-09T19:00:00Z,26.6955,-81.8138,1.44,6.98,1111122 
SCCF RECON,ioos:station:SCCF:18:1,2013-02-09T20:00:00Z,26.6955,-81.8138,1.51,7.44,1111122 
SCCF RECON,ioos:station:SCCF:18:1,2013-02-09T21:00:00Z,26.6955,-81.8138,1.56,7.49,1111122 
SCCF RECON,ioos:station:SCCF:18:1,2013-02-09T22:00:00Z,26.6955,-81.8138,1.58,7.57,1111122 
SCCF RECON,ioos:station:SCCF:18:1,2013-02-09T23:00:00Z,26.6955,-81.8138,1.56,7.74,1111122 
SCCF RECON,ioos:station:SCCF:18:1,2013-02-10T00:00:00Z,26.6955,-81.8138,1.51,7.17,1111122 
SCCF RECON,ioos:station:SCCF:18:1,2013-02-10T01:00:00Z,26.6955,-81.8138,1.47,7.17,1111122 
SCCF RECON,ioos:station:SCCF:18:1,2013-02-10T02:00:00Z,26.6955,-81.8138,1.44,6.96,1111122 
SCCF RECON,ioos:station:SCCF:18:1,2013-02-10T03:00:00Z,26.6955,-81.8138,1.46,6.92,1111122 
SCCF RECON,ioos:station:SCCF:18:1,2013-02-10T04:00:00Z,26.6955,-81.8138,1.55,6.78,1111122 
SCCF RECON,ioos:station:SCCF:18:1,2013-02-10T05:00:00Z,26.6955,-81.8138,1.65,6.83,1111122 
SCCF RECON,ioos:station:SCCF:18:1,2013-02-10T06:00:00Z,26.6955,-81.8138,1.718,6.77,1111122 
SCCF RECON,ioos:station:SCCF:18:1,2013-02-10T07:00:00Z,26.6955,-81.8138,1.769,6.73,1111122 
SCCF RECON,ioos:station:SCCF:18:1,2013-02-10T08:00:00Z,26.6955,-81.8138,1.82,6.56,1111122 
SCCF RECON,ioos:station:SCCF:18:1,2013-02-10T09:00:00Z,26.6955,-81.8138,1.84,6.7,1111122 
SCCF RECON,ioos:station:SCCF:18:1,2013-02-10T10:00:00Z,26.6955,-81.8138,1.77,6.69,1111122 
SCCF RECON,ioos:station:SCCF:18:1,2013-02-10T11:00:00Z,26.6955,-81.8138,1.69,6.6,1111122 
SCCF RECON,ioos:station:SCCF:18:1,2013-02-10T12:00:00Z,26.6955,-81.8138,1.64,6.35,1111122 
SCCF RECON,ioos:station:SCCF:18:1,2013-02-10T13:00:00Z,26.6955,-81.8138,1.6,6.61,1111122 
SCCF RECON,ioos:station:SCCF:18:1,2013-02-10T14:00:00Z,26.6955,-81.8138,1.55,6.55,1111122 
SCCF RECON,ioos:station:SCCF:18:1,2013-02-10T15:00:00Z,26.6955,-81.8138,1.49,6.6,1111122 
SCCF RECON,ioos:station:SCCF:18:1,2013-02-10T16:00:00Z,26.6955,-81.8138,1.449,6.78,1111122 
SCCF RECON,ioos:station:SCCF:18:1,2013-02-10T17:00:00Z,26.6955,-81.8138,1.43,6.88,1111122 
SCCF RECON,ioos:station:SCCF:18:1,2013-02-10T18:00:00Z,26.6955,-81.8138,1.481,6.95,1111122 
SCCF RECON,ioos:station:SCCF:18:1,2013-02-10T19:00:00Z,26.6955,-81.8138,1.553,7.22,1111122 
SCCF RECON,ioos:station:SCCF:18:1,2013-02-10T20:00:00Z,26.6955,-81.8138,1.603,7.4,1111122 
SCCF RECON,ioos:station:SCCF:18:1,2013-02-10T21:00:00Z,26.6955,-81.8138,1.63,7.37,1111122 
SCCF RECON,ioos:station:SCCF:18:1,2013-02-10T22:00:00Z,26.6955,-81.8138,1.66,7.44,1111122 
SCCF RECON,ioos:station:SCCF:18:1,2013-02-10T23:00:00Z,26.6955,-81.8138,1.64,7.46,1111122 
SCCF RECON,ioos:station:SCCF:18:1,2013-02-11T00:00:00Z,26.6955,-81.8138,1.593,7.11,1111122 
SCCF RECON,ioos:station:SCCF:18:1,2013-02-11T01:00:00Z,26.6955,-81.8138,1.54,6.88,1111122 
SCCF RECON,ioos:station:SCCF:18:1,2013-02-11T02:00:00Z,26.6955,-81.8138,1.511,6.97,1111122 
SCCF RECON,ioos:station:SCCF:18:1,2013-02-11T03:00:00Z,26.6955,-81.8138,1.5,6.92,1111122 
SCCF RECON,ioos:station:SCCF:18:1,2013-02-11T04:00:00Z,26.6955,-81.8138,1.5,6.95,1111122 
SCCF RECON,ioos:station:SCCF:18:1,2013-02-11T05:00:00Z,26.6955,-81.8138,1.586,6.89,1111122 
SCCF RECON,ioos:station:SCCF:18:1,2013-02-11T06:00:00Z,26.6955,-81.8138,1.67,6.72,1111122 
SCCF RECON,ioos:station:SCCF:18:1,2013-02-11T07:00:00Z,26.6955,-81.8138,1.73,6.76,1111122 
SCCF RECON,ioos:station:SCCF:18:1,2013-02-11T08:00:00Z,26.6955,-81.8138,1.78,6.62,1111122 
SCCF RECON,ioos:station:SCCF:18:1,2013-02-11T09:00:00Z,26.6955,-81.8138,1.84,6.63,1111122 
SCCF RECON,ioos:station:SCCF:18:1,2013-02-11T10:00:00Z,26.6955,-81.8138,1.85,6.69,1111122 
SCCF RECON,ioos:station:SCCF:18:1,2013-02-11T11:00:00Z,26.6955,-81.8138,1.79,6.52,1111122 
SCCF RECON,ioos:station:SCCF:18:1,2013-02-11T12:00:00Z,26.6955,-81.8138,1.714,6.61,1111122 
SCCF RECON,ioos:station:SCCF:18:1,2013-02-11T13:00:00Z,26.6955,-81.8138,1.66,6.68,1111122 
SCCF RECON,ioos:station:SCCF:18:1,2013-02-11T14:00:00Z,26.6955,-81.8138,1.62,6.6,1111122 
SCCF RECON,ioos:station:SCCF:18:1,2013-02-11T15:00:00Z,26.6955,-81.8138,1.577,6.65,1111122 
SCCF RECON,ioos:station:SCCF:18:1,2013-02-11T16:00:00Z,26.6955,-81.8138,1.53,6.78,1111122 
SCCF RECON,ioos:station:SCCF:18:1,2013-02-11T17:00:00Z,26.6955,-81.8138,1.51,6.84,1111122 
SCCF RECON,ioos:station:SCCF:18:1,2013-02-11T18:00:00Z,26.6955,-81.8138,1.58,6.96,1111122 
SCCF RECON,ioos:station:SCCF:18:1,2013-02-11T19:00:00Z,26.6955,-81.8138,1.67,7.02,1111122 
SCCF RECON,ioos:station:SCCF:18:1,2013-02-11T20:00:00Z,26.6955,-81.8138,1.74,6.94,1111122 
SCCF RECON,ioos:station:SCCF:18:1,2013-02-11T21:00:00Z,26.6955,-81.8138,1.78,7.35,1111122 